TimeMST,TemperatureF,Dew PointF,Humidity,Sea Level PressureIn,VisibilityMPH,Wind Direction,Wind SpeedMPH,Gust SpeedMPH,PrecipitationIn,Events,Conditions,WindDirDegrees,DateUTC
12:53 AM,57.9,44.1,60,29.90,10.0,SE,6.9,-,N/A,,Mostly Cloudy,130,2011-11-13 07:53:00
1:53 AM,57.9,44.1,60,29.89,10.0,South,4.6,-,N/A,,Partly Cloudy,170,2011-11-13 08:53:00
2:53 AM,57.9,45.0,62,29.88,10.0,SW,5.8,-,N/A,,Mostly Cloudy,220,2011-11-13 09:53:00
3:53 AM,59.0,45.0,60,29.86,10.0,Calm,Calm,-,N/A,,Overcast,0,2011-11-13 10:53:00
4:53 AM,59.0,46.0,62,29.86,10.0,Calm,Calm,-,N/A,,Overcast,0,2011-11-13 11:53:00
5:53 AM,60.1,45.0,57,29.84,10.0,SE,8.1,-,N/A,,Overcast,130,2011-11-13 12:53:00
6:53 AM,60.1,46.9,62,29.87,10.0,East,3.5,-,N/A,,Overcast,80,2011-11-13 13:53:00
7:53 AM,60.8,48.2,63,29.96,10.0,SSE,3.5,-,N/A,Rain,Light Rain,160,2011-11-13 14:53:00
8:53 AM,57.0,54.0,89,29.91,6.0,Calm,Calm,-,0.09,Rain,Light Rain,0,2011-11-13 15:53:00
9:53 AM,57.9,55.9,93,29.91,7.0,ENE,4.6,-,0.06,Rain,Light Rain,70,2011-11-13 16:53:00
10:53 AM,57.9,55.0,90,29.92,9.0,NE,3.5,-,0.03,Rain,Light Rain,40,2011-11-13 17:53:00
11:05 AM,57.2,57.2,100,29.99,5.0,North,4.6,-,0.02,Rain,Heavy Rain,350,2011-11-13 18:05:00
11:19 AM,57.2,55.4,94,29.99,5.0,ENE,5.8,-,0.20,Rain,Heavy Rain,70,2011-11-13 18:19:00
11:30 AM,57.2,57.2,100,29.98,5.0,North,3.5,-,0.22,Rain,Light Rain,10,2011-11-13 18:30:00
11:39 AM,57.2,57.2,100,29.98,5.0,Calm,Calm,-,0.22,,Overcast,0,2011-11-13 18:39:00
11:53 AM,57.9,55.9,93,29.92,5.0,Calm,Calm,-,0.22,,Overcast,0,2011-11-13 18:53:00
12:28 PM,57.2,55.4,94,29.98,10.0,NNW,8.1,-,N/A,,Overcast,340,2011-11-13 19:28:00
12:43 PM,55.4,55.4,100,29.98,10.0,North,9.2,-,N/A,,Overcast,360,2011-11-13 19:43:00
12:53 PM,55.9,55.0,97,29.91,10.0,North,6.9,-,N/A,,Overcast,360,2011-11-13 19:53:00
1:06 PM,57.2,55.4,94,29.98,10.0,NNW,9.2,-,N/A,,Overcast,340,2011-11-13 20:06:00
1:49 PM,59.0,55.4,88,29.96,10.0,North,8.1,-,N/A,,Overcast,350,2011-11-13 20:49:00
1:53 PM,59.0,55.9,90,29.89,10.0,North,6.9,-,N/A,,Overcast,350,2011-11-13 20:53:00
2:00 PM,60.8,55.4,82,29.97,10.0,NNW,6.9,-,N/A,,Mostly Cloudy,330,2011-11-13 21:00:00
2:07 PM,60.8,55.4,82,29.96,10.0,NNW,6.9,-,N/A,,Mostly Cloudy,340,2011-11-13 21:07:00
2:15 PM,59.0,55.4,88,29.96,10.0,NNW,8.1,-,N/A,,Overcast,330,2011-11-13 21:15:00
2:23 PM,60.8,55.4,82,29.95,10.0,NNW,6.9,-,N/A,,Overcast,330,2011-11-13 21:23:00
2:53 PM,60.8,55.4,82,29.95,10.0,NNW,9.2,-,N/A,,Overcast,330,2011-11-13 21:53:00
3:27 PM,57.2,55.4,94,29.96,2.5,NW,5.8,-,0.04,Rain,Rain,310,2011-11-13 22:27:00
3:34 PM,57.2,55.4,94,29.96,4.0,NNW,5.8,-,0.06,Rain,Light Rain,340,2011-11-13 22:34:00
3:46 PM,57.2,55.4,94,29.95,10.0,North,5.8,-,0.06,,Overcast,350,2011-11-13 22:46:00
3:53 PM,57.9,55.9,93,29.88,10.0,North,8.1,-,0.06,,Overcast,350,2011-11-13 22:53:00
4:53 PM,57.0,55.9,96,29.90,10.0,NW,4.6,-,0.00,Rain,Light Rain,320,2011-11-13 23:53:00
5:08 PM,57.2,55.4,94,29.97,10.0,NNW,4.6,-,0.00,,Overcast,330,2011-11-14 00:08:00
5:24 PM,57.2,55.4,94,29.97,10.0,NNW,9.2,-,0.00,,Overcast,340,2011-11-14 00:24:00
5:37 PM,57.2,55.4,94,29.97,10.0,NNW,9.2,-,0.00,Rain,Light Rain,340,2011-11-14 00:37:00
5:53 PM,55.9,54.0,93,29.92,10.0,NW,9.2,-,0.00,Rain,Light Rain,310,2011-11-14 00:53:00
6:53 PM,55.0,53.1,93,29.91,10.0,NNE,8.1,-,0.02,,Overcast,30,2011-11-14 01:53:00
7:53 PM,55.0,53.1,93,29.93,10.0,East,5.8,-,N/A,,Overcast,100,2011-11-14 02:53:00
8:53 PM,53.1,52.0,96,29.93,10.0,South,4.6,-,N/A,,Partly Cloudy,190,2011-11-14 03:53:00
9:53 PM,51.8,51.8,100,29.99,10.0,SW,4.6,-,N/A,,Clear,220,2011-11-14 04:53:00
10:53 PM,51.1,50.0,96,29.94,10.0,Calm,Calm,-,N/A,,Clear,0,2011-11-14 05:53:00
11:53 PM,51.1,50.0,96,29.92,10.0,Calm,Calm,-,N/A,,Clear,0,2011-11-14 06:53:00